[[{"header":{"parameterUnit":"m.s-1","parameterCategory":1,"la1":30.2991,"la2":30.254,"lo1":-89.0895,"lo2":-89.0444,"dy":0.0017,"dx":0.0017,"nx":28,"ny":28,"refTime":"2025-07-04T09:00:00:Z","depth":0,"parameterNumber":2,"parameterNumberName":"U-component_of_WINDS"},"data":[0,0,0,0,0,0,0,0,0,0,0,0,0,0,0,0,0,0,0,0,0,0,0,0,0,0,0,0,0,0,0,0,0,0,0,0,0,0,0,0,0,0,0,0,0,0,0,0,0,0,0,0,0,0,0,0,0,0,-0.7156,-0.7155,0,-0.709,-0.7089,-0.7088,-0.7027,-0.7026,-0.7025,-0.7024,-0.6957,-0.6956,-0.6954,0,0,0,0,0,0,0,0,0,0,0,0,0,-0.723,-0.7229,-0.7156,-0.7155,-0.7154,-0.709,-0.7089,-0.7088,-0.7027,-0.7026,-0.7025,-0.7024,-0.6957,-0.6956,-0.6954,0,0,0,0,0,0,0,0,0,0,0,0,0,-0.7184,-0.7228,-0.7156,-0.7116,-0.7112,-0.709,-0.7089,-0.7088,-0.7027,-0.7026,-0.7025,-0.7024,-0.6957,-0.6956,-0.6954,-0.6967,0,0,-0.6949,-0.6948,0,0,0,0,0,0,0,0,-0.7187,-0.7181,-0.7123,-0.7119,-0.7114,-0.7065,-0.709,-0.7047,-0.7027,-0.7059,-0.7024,-0.7023,-0.6994,-0.6989,-0.6979,-0.6964,-0.6961,-0.6949,-0.6948,-0.6947,-0.6947,0,0,0,0,0,0,0,-0.719,-0.7184,-0.713,-0.7122,-0.7117,-0.7101,-0.7094,-0.7081,-0.7034,-0.7056,-0.7052,-0.7045,-0.6991,-0.6981,-0.6977,-0.696,-0.6949,-0.6948,-0.6947,-0.6946,-0.6951,-0.6952,0,0,0,0,0,0,-0.7199,-0.7187,-0.7132,-0.7128,-0.7148,-0.7101,-0.7092,-0.7082,-0.7034,-0.7025,-0.7046,-0.7042,-0.6984,-0.6979,-0.6974,-0.6986,-0.6947,-0.6946,-0.6945,-0.695,-0.6951,-0.6953,0,0,0,0,0,0,-0.7201,-0.7195,-0.7135,-0.7156,-0.7147,-0.7101,-0.709,-0.7081,-0.7071,-0.7026,-0.7017,-0.7044,-0.6983,-0.6977,-0.6969,-0.6983,-0.6945,-0.6943,-0.6949,-0.695,-0.6952,-0.7011,0,0,0,0,0,0,-0.7203,-0.7196,-0.72,-0.7157,-0.7146,-0.7131,-0.7091,-0.7081,-0.7068,-0.7063,-0.7022,-0.7014,-0.6982,-0.6972,-0.6968,-0.698,-0.6942,-0.6947,-0.695,-0.6952,-0.7007,-0.7014,-0.702,0,0,0,0,0,-0.7206,-0.7219,-0.7201,-0.7195,-0.7151,-0.7132,-0.7126,-0.7089,-0.707,-0.7074,-0.7044,-0.7015,-0.6982,-0.6972,-0.6966,-0.6979,-0.6946,-0.6949,-0.6951,-0.7004,-0.7013,-0.702,0,0,0,0,0,0,-0.7266,-0.7213,-0.7192,-0.7191,-0.7167,-0.7121,-0.7126,-0.7099,-0.7079,-0.7075,-0.7029,-0.702,-0.7018,-0.6997,-0.6987,-0.6988,-0.696,-0.6962,-0.7002,-0.701,-0.7016,-0.7022,-0.6941,0,0,0,0,0,-0.7279,-0.7268,-0.7222,-0.7226,-0.7215,-0.7172,-0.7163,-0.7136,-0.7109,-0.7098,-0.7068,-0.7042,-0.7026,-0.7017,-0.6999,-0.7003,-0.6994,-0.7009,-0.7015,-0.7021,-0.7023,-0.7025,-0.7031,-0.6961,-0.6961,-0.6961,0,0,-0.7307,-0.7276,-0.7272,-0.7237,-0.7215,-0.7205,-0.7164,-0.7155,-0.7147,-0.7096,-0.7088,-0.7065,-0.7033,-0.7032,-0.703,-0.7014,-0.704,-0.7024,-0.7029,-0.7028,-0.7028,-0.7035,-0.7041,-0.6963,-0.6962,-0.6962,0,0,-0.7351,-0.7327,-0.7328,-0.7306,-0.7272,-0.7244,-0.7244,-0.7203,-0.7186,-0.7176,-0.7138,-0.7128,-0.7101,-0.708,-0.7066,-0.7102,-0.7074,-0.7097,-0.7131,-0.7133,-0.7139,-0.7143,-0.7157,-0.7163,-0.7099,-0.71,-0.71,0,-0.7389,-0.7372,-0.7331,-0.7325,-0.7311,-0.7264,-0.7265,-0.7246,-0.7208,-0.72,-0.7183,-0.7148,-0.7124,-0.7117,-0.7126,-0.7116,-0.7115,-0.7103,-0.7141,-0.7145,-0.7149,-0.7162,-0.7167,-0.7103,-0.7102,-0.7102,-0.7102,0,-0.7421,-0.741,-0.7415,-0.738,-0.7366,-0.7364,-0.7322,-0.7313,-0.7287,-0.7261,-0.7252,-0.722,-0.7196,-0.7192,-0.7167,-0.7182,-0.7174,-0.7149,-0.7121,-0.716,-0.7171,-0.7175,-0.7107,-0.7106,-0.7105,-0.7104,0,0,-0.7504,-0.7446,-0.7448,-0.7432,-0.7391,-0.7382,-0.7376,-0.7352,-0.7346,-0.7321,-0.7316,-0.7294,-0.7272,-0.7256,-0.7227,-0.7229,-0.726,-0.7204,-0.7203,-0.7217,-0.7276,-0.7296,-0.7302,-0.7241,-0.7242,-0.7242,-0.7279,0,-0.7543,-0.7531,-0.7493,-0.7493,-0.7482,-0.7437,-0.7433,-0.7407,-0.7382,-0.7369,-0.7341,-0.7326,-0.7297,-0.7287,-0.7286,-0.7257,-0.7272,-0.7253,-0.7237,-0.7237,-0.7248,-0.7308,-0.7329,-0.7365,-0.7283,-0.7284,-0.7284,0,-0.7587,-0.7565,-0.7564,-0.7524,-0.7518,-0.7515,-0.749,-0.7478,-0.7448,-0.7429,-0.7411,-0.738,-0.7371,-0.7343,-0.7332,-0.732,-0.7311,-0.7295,-0.7296,-0.7294,-0.7264,-0.7309,-0.7376,-0.7382,-0.7291,-0.729,-0.729,0,-0.7649,-0.7619,-0.7615,-0.7602,-0.7555,-0.7553,-0.7534,-0.7502,-0.749,-0.7468,-0.746,-0.7437,-0.7425,-0.7408,-0.7371,-0.7354,-0.7364,-0.7333,-0.7349,-0.7351,-0.7355,-0.7356,-0.7423,-0.7347,-0.7347,-0.7346,-0.7346,0,-0.7697,-0.7699,-0.7642,-0.764,-0.764,-0.7596,-0.7597,-0.7573,-0.7545,-0.7538,-0.7496,-0.749,-0.7441,-0.7428,-0.7399,-0.7395,-0.7389,-0.7374,-0.7367,-0.7379,-0.7381,-0.7374,-0.7371,-0.7348,-0.7347,-0.7347,-0.7347,0,-0.7767,-0.7729,-0.7722,-0.7677,-0.7666,-0.7668,-0.763,-0.7626,-0.7597,-0.7588,-0.7583,-0.7539,-0.7522,-0.7483,-0.7456,-0.7436,-0.744,-0.7425,-0.745,-0.7446,-0.7465,-0.7464,-0.7531,-0.7538,-0.7456,-0.7457,-0.7457,0,-0.7802,-0.7802,-0.7757,-0.7749,-0.7731,-0.7718,-0.7705,-0.7662,-0.765,-0.7616,-0.7616,-0.7596,-0.7578,-0.7553,-0.7519,-0.7498,-0.7483,-0.7508,-0.748,-0.7492,-0.7486,-0.7487,-0.7487,-0.7515,-0.7516,-0.7517,-0.7518,0,-0.7867,-0.7848,-0.7832,-0.7809,-0.7795,-0.7775,-0.7752,-0.7748,-0.7699,-0.7688,-0.7671,-0.7657,-0.7629,-0.761,-0.7584,-0.7563,-0.7533,-0.7526,-0.7529,-0.7543,-0.7558,-0.7551,-0.7469,-0.7526,-0.7525,-0.7524,-0.7524,-0.7523,-0.7921,-0.7919,-0.7888,-0.7871,-0.7849,-0.7829,-0.7823,-0.7794,-0.7779,-0.7753,-0.7728,-0.7713,-0.7682,-0.7644,-0.7625,-0.7613,-0.7597,-0.7601,-0.7603,-0.7605,-0.7611,-0.7558,-0.7608,-0.7607,-0.7607,-0.7607,-0.7607,0,-0.7986,-0.7963,-0.7948,-0.7918,-0.7905,-0.7876,-0.785,-0.7841,-0.7828,-0.7802,-0.7785,-0.7765,-0.7746,-0.771,-0.7688,-0.7685,-0.7671,-0.7681,-0.7682,-0.7678,-0.7625,-0.7626,-0.7693,-0.7693,-0.7693,-0.7693,-0.7693,-0.7693,-0.8018,-0.8014,-0.7991,-0.7976,-0.7952,-0.7938,-0.7925,-0.7907,-0.7886,-0.7865,-0.7849,-0.7825,-0.7795,-0.7771,-0.7752,-0.7742,-0.7736,-0.7751,-0.7737,-0.7689,-0.7681,-0.7673,-0.7674,-0.775,-0.775,-0.7791,-0.7791,-0.7791]},{"header":{"parameterUnit":"m.s-1","parameterCategory":1,"la1":30.2991,"la2":30.254,"lo1":-89.0895,"lo2":-89.0444,"dy":0.0017,"dx":0.0017,"nx":28,"ny":28,"refTime":"2025-07-04T09:00:00:Z","depth":0,"parameterNumber":3,"parameterNumberName":"V-component_of_WINDS"},"data":[0,0,0,0,0,0,0,0,0,0,0,0,0,0,0,0,0,0,0,0,0,0,0,0,0,0,0,0,0,0,0,0,0,0,0,0,0,0,0,0,0,0,0,0,0,0,0,0,0,0,0,0,0,0,0,0,0,0,-3.1622,-3.1622,0,-3.1658,-3.1658,-3.1659,-3.1654,-3.1653,-3.1653,-3.1652,-3.1685,-3.1687,-3.1688,0,0,0,0,0,0,0,0,0,0,0,0,0,-3.1547,-3.1548,-3.1622,-3.1622,-3.1623,-3.1658,-3.1658,-3.1659,-3.1654,-3.1653,-3.1652,-3.1652,-3.1685,-3.1686,-3.1688,0,0,0,0,0,0,0,0,0,0,0,0,0,-3.1581,-3.1549,-3.1622,-3.1625,-3.1625,-3.1658,-3.1658,-3.1659,-3.1654,-3.1653,-3.1652,-3.1651,-3.1684,-3.1686,-3.1688,-3.1719,0,0,-3.1695,-3.1696,0,0,0,0,0,0,0,0,-3.1579,-3.1583,-3.1624,-3.1625,-3.1625,-3.1651,-3.1644,-3.1679,-3.1654,-3.1643,-3.1652,-3.1651,-3.1674,-3.1677,-3.1686,-3.1721,-3.1722,-3.1695,-3.1696,-3.1697,-3.1698,0,0,0,0,0,0,0,-3.1576,-3.1582,-3.1636,-3.1624,-3.1625,-3.1623,-3.1627,-3.1651,-3.1663,-3.1644,-3.1644,-3.1648,-3.1674,-3.1684,-3.1686,-3.1723,-3.1695,-3.1697,-3.1698,-3.1699,-3.1787,-3.1788,0,0,0,0,0,0,-3.1574,-3.158,-3.1635,-3.1637,-3.16,-3.1626,-3.163,-3.1643,-3.1663,-3.1665,-3.1649,-3.1648,-3.168,-3.1684,-3.1687,-3.1726,-3.1697,-3.1699,-3.1701,-3.1786,-3.1787,-3.1788,0,0,0,0,0,0,-3.1572,-3.1579,-3.1634,-3.1609,-3.1615,-3.1628,-3.1643,-3.1644,-3.1654,-3.1667,-3.1668,-3.1656,-3.168,-3.1684,-3.1712,-3.1727,-3.17,-3.1702,-3.1785,-3.1786,-3.1788,-3.1804,0,0,0,0,0,0,-3.157,-3.1578,-3.159,-3.1609,-3.1617,-3.1658,-3.1644,-3.1646,-3.1658,-3.1657,-3.1674,-3.1676,-3.1679,-3.1709,-3.1714,-3.173,-3.1704,-3.1783,-3.1785,-3.1787,-3.1802,-3.1806,-3.1809,0,0,0,0,0,-3.1567,-3.1592,-3.1591,-3.1598,-3.1633,-3.1659,-3.1664,-3.1668,-3.1659,-3.1671,-3.168,-3.1675,-3.1725,-3.1712,-3.1718,-3.1734,-3.1782,-3.1785,-3.1787,-3.18,-3.1805,-3.1809,0,0,0,0,0,0,-3.1573,-3.1595,-3.1594,-3.1625,-3.1641,-3.1658,-3.1674,-3.1673,-3.169,-3.1688,-3.1692,-3.1696,-3.1724,-3.1732,-3.1717,-3.1766,-3.1752,-3.1756,-3.176,-3.1765,-3.1768,-3.1766,-3.1706,0,0,0,0,0,-3.1579,-3.1599,-3.1616,-3.1643,-3.1651,-3.1661,-3.1673,-3.1675,-3.1691,-3.1697,-3.1707,-3.1722,-3.1741,-3.1753,-3.1771,-3.1803,-3.1807,-3.1817,-3.1821,-3.1823,-3.1827,-3.1846,-3.1851,-3.1796,-3.1796,-3.1796,0,0,-3.1589,-3.1603,-3.1616,-3.1644,-3.1657,-3.1678,-3.1666,-3.1689,-3.1704,-3.17,-3.1727,-3.1736,-3.1752,-3.1782,-3.1796,-3.1789,-3.1843,-3.1826,-3.1828,-3.183,-3.1849,-3.1854,-3.1858,-3.1797,-3.1797,-3.1797,0,0,-3.1619,-3.1632,-3.1657,-3.167,-3.1689,-3.1696,-3.1702,-3.172,-3.1726,-3.1754,-3.1752,-3.177,-3.1802,-3.1815,-3.1825,-3.1862,-3.1859,-3.1868,-3.1886,-3.1905,-3.1909,-3.1913,-3.1928,-3.1933,-3.1871,-3.1871,-3.1871,0,-3.163,-3.1663,-3.1669,-3.1692,-3.1705,-3.1704,-3.1729,-3.1741,-3.1764,-3.1773,-3.1766,-3.1808,-3.1818,-3.1853,-3.1862,-3.187,-3.1877,-3.1866,-3.1908,-3.1912,-3.1916,-3.193,-3.1935,-3.1872,-3.1872,-3.1872,-3.1872,0,-3.1675,-3.1698,-3.1715,-3.1741,-3.1755,-3.1779,-3.1789,-3.1803,-3.1804,-3.1812,-3.1841,-3.1854,-3.1876,-3.1884,-3.1885,-3.1919,-3.1914,-3.1907,-3.1894,-3.1922,-3.1936,-3.1941,-3.1874,-3.1873,-3.1873,-3.1873,0,0,-3.1709,-3.174,-3.1746,-3.1759,-3.1781,-3.1798,-3.1822,-3.1845,-3.1858,-3.1874,-3.1895,-3.1923,-3.1918,-3.1929,-3.1932,-3.1948,-3.1979,-3.1939,-3.194,-3.1947,-3.2018,-3.2024,-3.203,-3.1976,-3.1977,-3.1978,-3.2018,0,-3.1743,-3.1788,-3.1795,-3.1833,-3.1855,-3.1855,-3.1876,-3.1892,-3.19,-3.1919,-3.1927,-3.1948,-3.1939,-3.1946,-3.1962,-3.1971,-3.1993,-3.1968,-3.1996,-3.1997,-3.1993,-3.2037,-3.2043,-3.2079,-3.2023,-3.2023,-3.2024,0,-3.1788,-3.1809,-3.185,-3.1872,-3.1881,-3.19,-3.1923,-3.1941,-3.1959,-3.1964,-3.1978,-3.1979,-3.2004,-3.1989,-3.2024,-3.2007,-3.2018,-3.2025,-3.2026,-3.2029,-3.2013,-3.2043,-3.2091,-3.2097,-3.2032,-3.2031,-3.2031,0,-3.1811,-3.1849,-3.1879,-3.1889,-3.1914,-3.1928,-3.1939,-3.1956,-3.197,-3.1989,-3.1999,-3.202,-3.2031,-3.2047,-3.2054,-3.2042,-3.2089,-3.2074,-3.2094,-3.2094,-3.2104,-3.2103,-3.2156,-3.2109,-3.2109,-3.2109,-3.2109,0,-3.1849,-3.1874,-3.189,-3.1909,-3.1938,-3.1946,-3.1974,-3.1984,-3.2,-3.202,-3.202,-3.2039,-3.2046,-3.2066,-3.2071,-3.21,-3.2105,-3.2109,-3.2111,-3.211,-3.211,-3.2118,-3.2116,-3.2111,-3.211,-3.211,-3.211,0,-3.1879,-3.189,-3.1924,-3.1946,-3.1952,-3.1973,-3.1991,-3.2009,-3.2018,-3.2044,-3.205,-3.2063,-3.2087,-3.2095,-3.2123,-3.2127,-3.2161,-3.2159,-3.2155,-3.2156,-3.2176,-3.2174,-3.2236,-3.2245,-3.2192,-3.2192,-3.2193,0,-3.1903,-3.1923,-3.1948,-3.1963,-3.1975,-3.1998,-3.2013,-3.2021,-3.2037,-3.206,-3.2075,-3.21,-3.2119,-3.2157,-3.2169,-3.2191,-3.219,-3.2211,-3.2193,-3.2193,-3.2192,-3.2191,-3.2194,-3.2214,-3.2214,-3.2215,-3.2215,0,-3.1944,-3.1949,-3.1972,-3.1997,-3.2015,-3.2035,-3.2054,-3.2065,-3.2076,-3.2094,-3.2119,-3.2135,-3.2165,-3.2189,-3.2212,-3.2222,-3.2221,-3.2221,-3.2227,-3.2227,-3.2224,-3.2227,-3.2165,-3.2219,-3.2219,-3.2218,-3.2218,-3.2218,-3.1972,-3.1991,-3.2013,-3.2038,-3.2054,-3.2072,-3.2091,-3.2103,-3.2125,-3.2152,-3.2155,-3.2182,-3.2201,-3.2232,-3.2243,-3.2265,-3.2259,-3.2267,-3.2269,-3.2272,-3.2274,-3.222,-3.2268,-3.2268,-3.2268,-3.2268,-3.2268,0,-3.2015,-3.2029,-3.2053,-3.2081,-3.2101,-3.21,-3.2121,-3.2137,-3.2163,-3.2181,-3.2201,-3.2231,-3.2255,-3.2269,-3.2293,-3.2307,-3.2307,-3.2313,-3.2313,-3.2316,-3.2277,-3.227,-3.2313,-3.2313,-3.2313,-3.2313,-3.2313,-3.2313,-3.204,-3.2072,-3.208,-3.2121,-3.2135,-3.2163,-3.2176,-3.2193,-3.2208,-3.2242,-3.2263,-3.2272,-3.2289,-3.2314,-3.2336,-3.234,-3.2349,-3.2356,-3.2359,-3.2323,-3.2318,-3.2314,-3.2307,-3.2357,-3.2357,-3.2396,-3.2396,-3.2396]}]]